Regional Weather Roundup
Issued by NWS

Home | Current Version | Previous Version | Graphics & Text | Print | Product List | Glossary On
Versions: 1 2 3 4 5 6 7 8 9 10 11 12 13 14 15 16 17 18 19 20 21 22 23 24 25 26 27 28 29 30 31 32 33 34 35 36 37 38 39 40 41 42 43 44 45 46 47 48 49 50
000
ASUS43 KMPX 282001
RWRMN
WEATHER ROUNDUP FOR MINNESOTA
NATIONAL WEATHER SERVICE TWIN CITIES/CHANHASSEN MN
200 PM CST WED JAN 28 2015


NOTE: "FAIR" INDICATES FEW OR NO CLOUDS BELOW 12,000 FEET WITH NO
SIGNIFICANT WEATHER AND/OR OBSTRUCTIONS TO VISIBILITY. N/A MEANS
CURRENT SKY AND/OR WEATHER CONDITIONS ARE NOT AVAILABLE.

MNZ060>063-068>070-282100-
   Twin Cities Metro

CITY           SKY/WX    TMP DP  RH WIND       PRES   REMARKS
TWIN CITIES    CLOUDY    30  25  81 SE16      29.83F HAZE    WCI  19
ST PAUL        CLOUDY    30  26  85 SE16      29.85F FOG     WCI  19
CRYSTAL        CLOUDY    30  26  85 SE12      29.81F FOG     WCI  20
LAKEVILLE      CLOUDY    28  27  93 SE12G18   29.82F FOG     WCI  18
EDEN PRAIRIE   CLOUDY    31  26  82 SE14      29.80F HAZE    WCI  21
SOUTH ST PAUL  CLOUDY    30  26  86 SE9       29.84F FOG     WCI  22
LAKE ELMO      CLOUDY    30  28  93 SE12      29.85F FOG     WCI  21
$$
MNZ001>005-007-008-013>017-022>024-027-028-282100-
   Northwest Minnesota

CITY           SKY/WX    TMP DP  RH WIND       PRES   REMARKS
BEMIDJI        CLOUDY    31  30  95 S8        29.76R FOG     WCI  24
HALLOCK        FOG       34  32  93 CALM      29.78S VSB 1/2
ROSEAU         CLOUDY    34  28  80 E3        29.77S FOG
WARROAD        FOG       32  28  86 CALM      29.78S VSB 1
THIEF RVR FALL CLOUDY    34  30  86 SW5       29.76F WCI  30
CROOKSTON      CLOUDY    34  32  93 W6        29.78R FOG     WCI  29
FOSSTON        CLOUDY    32  28  86 SW7       29.76S FOG     WCI  26
DETROIT LAKES  CLOUDY    34  32  93 S13       29.75F FOG     WCI  25
MOORHEAD       CLOUDY    36  36 100 S13       29.76F FOG
PARK RAPIDS    CLOUDY    32  29  88 S12       29.74F FOG     WCI  23
MAHNOMEN       CLOUDY    33  31  92 S8        29.75S FOG     WCI  26
$$
MNZ006-009>011-018-025>026-282100-
   North Central Minnesota

CITY           SKY/WX    TMP DP  RH WIND       PRES   REMARKS
BAUDETTE       CLOUDY    31  30  96 S3        29.77F FOG
FLAG ISLAND    CLOUDY    28  28 100 E5        29.78F FOG     WCI  23
INTL FALLS     CLOUDY    27  23  85 SE6       29.81F WCI  20
WASKISH        CLOUDY    30  28  93 CALM      29.78F FOG
BIG FORK       CLOUDY    28  27  93 S7        29.79S FOG     WCI  21
LONGVILLE      CLOUDY    28  27  93 SE9       29.77F FOG     WCI  20
GRAND RAPIDS   CLOUDY    27  25  93 SE12      29.78F WCI  16
CRANE LAKE     CLOUDY    25  23  93 S6        29.84F WCI  18
ORR            CLOUDY    25  19  80 S6        29.78F WCI  18
COOK           CLOUDY    25  21  86 S8        29.81F FOG     WCI  16
WALKER         CLOUDY    30  28  94 S7        29.76F FOG     WCI  23
$$
MNZ012-019>021-037-282100-
   Northeast Minnesota

CITY           SKY/WX    TMP DP  RH WIND       PRES   REMARKS
DULUTH         CLOUDY    28  22  78 S12       29.82F WCI  18
ELY            CLOUDY    27  23  86 S9        29.81F WCI  17
HIBBING        CLOUDY    27  21  78 S9        29.81F WCI  18
EVELETH        CLOUDY    27  23  86 S10       29.82F FOG     WCI  17
DULUTH HARBOR  CLOUDY    32  27  80 S10       29.87F WCI  24
TWO HARBORS    CLOUDY    30  25  80 SE5       29.83F WCI  25
SILVER BAY     CLOUDY    28  25  86 E6        29.85F WCI  22
GRAND MARAIS     N/A     30  25  81 E9        29.91F WCI  22
G MARAIS ARPRT   N/A     25  19  80 E7        29.85F HAZE    WCI  17
$$
MNZ029>031-032-039>041-046>048-054>057-064-282100-
   West Central Minnesota

CITY           SKY/WX    TMP DP  RH WIND       PRES   REMARKS
FERGUS FALLS   CLOUDY    34  30  86 S9        29.79F FOG     WCI  26
WHEATON        CLOUDY    32  30  93 SE13      29.76F FOG     WCI  22
MORRIS         CLOUDY    34  32  93 SE14      29.74F FOG     WCI  24
ALEXANDRIA     CLOUDY    31  30  96 S12       29.76F FOG     WCI  22
ELBOW LAKE     CLOUDY    32  31  96 S13G18    29.74F FOG     WCI  22
WADENA         CLOUDY    30  28  93 S10       29.76F FOG     WCI  21
GLENWOOD       CLOUDY    30  30 100 SE12      29.77F FOG     WCI  21
APPLETON       CLOUDY    36  32  87 SE8       29.75F FOG
BENSON         CLOUDY    34  30  86 S6        29.77S FOG     WCI  29
ORTONVILLE     CLOUDY    34  30  86 SE12      29.73F FOG     WCI  25
MADISON        CLOUDY    37  36  93 SE7       29.74S FOG
WILLMAR        CLOUDY    32  30  93 SE14      29.78F FOG     WCI  22
$$
MNZ033>034-036-042>043-049>051-058-059-282100-
   Central Minnesota

CITY           SKY/WX    TMP DP  RH WIND       PRES   REMARKS
ST CLOUD       CLOUDY    29  26  89 SE13      29.80F FOG     WCI  19
SAUK CENTRE    CLOUDY    31  29  95 SE12      29.79S FOG     WCI  21
PAYNESVILLE    CLOUDY    28  28  98 E12       29.79S FOG     WCI  18
AITKIN         CLOUDY    30  25  80 S12       29.80F HAZE    WCI  21
PINE RIVER     CLOUDY    28  28 100 S10       29.82F FOG     WCI  19
BRAINERD       CLOUDY    29  27  92 S10       29.80F FOG     WCI  20
STAPLES        CLOUDY    30  28  93 S8        29.78S FOG     WCI  23
LONG PRAIRIE   CLOUDY    30  30 100 SE13      29.78F FOG     WCI  20
LITTLE FALLS   CLOUDY    30  28  93 SE8       29.81S FOG     WCI  23
LITCHFIELD     CLOUDY    32  30  93 SE12      29.79S FOG     WCI  23
BUFFALO        CLOUDY    30  26  88 SE10      29.81F FOG     WCI  21
MAPLE LAKE     CLOUDY    31  29  92 SE7       29.81F FOG     WCI  24
$$
MNZ037-044-045-052-053-282100-
   East Central Minnesota

CITY           SKY/WX    TMP DP  RH WIND       PRES   REMARKS
PRINCETON      CLOUDY    30  27  86 SE10      29.82F HAZE    WCI  21
MORA           CLOUDY    28  25  86 S8        29.85F WCI  20
CAMBRIDGE      CLOUDY    30  21  69 SE7       29.81F HAZE    WCI  23
RUSH CITY      CLOUDY    29  25  83 SE8       29.84F WCI  21
MOOSE LAKE     CLOUDY    30  25  80 S7        29.83F HAZE    WCI  23
HINCKLEY       CLOUDY    30  27  86 S10       29.84F HAZE    WCI  21
CLOQUET        CLOUDY    28  21  74 SE8       29.82F WCI  20
MCGREGOR       CLOUDY    28  27  93 SE10      29.82F WCI  19
$$
MNZ071>073-080-081-089-090-097-098-282100-
   Southwest Minnesota

CITY           SKY/WX    TMP DP  RH WIND       PRES   REMARKS
MONTEVIDEO     CLOUDY    34  34 100 S7        29.76S FOG     WCI  28
GRANITE FALLS  CLOUDY    33  31  93 SE13G18   29.76F FOG     WCI  24
CANBY          CLOUDY    37  32  81 S6        29.73F
MARSHALL       CLOUDY    34  28  80 S10       29.74F WCI  26
REDWOOD FALLS  CLOUDY    34  31  88 SE12      29.75F FOG     WCI  25
OLIVIA         CLOUDY    32  32 100 SE13      29.75F FOG     WCI  22
PIPESTONE      CLOUDY    36  34  93 S9        29.68S FOG
WINDOM         CLOUDY    34  32  93 SE16      29.71F FOG     WCI  23
WORTHINGTON    CLOUDY    32  28  86 SE12      29.70F WCI  23
JACKSON        CLOUDY    32  32 100 SE8       29.73F FOG     WCI  25
TRACY          CLOUDY    34  32  93 S9        29.72S FOG     WCI  26
SLAYTON        CLOUDY    32  32  97 S10G20    29.70S FOG     WCI  24
$$
MNZ065>067-074>077-082>085-091>093-282100-
   South Central Minnesota

CITY           SKY/WX    TMP DP  RH WIND       PRES   REMARKS
MANKATO        CLOUDY    32  27  80 SE17      29.77F WCI  21
NEW ULM        CLOUDY    32  30  93 SE9       29.75F FOG     WCI  24
ST JAMES       CLOUDY    34  30  86 SE14      29.77F FOG     WCI  24
FAIRMONT       CLOUDY    34  28  80 SE17      29.74F WCI  23
GLENCOE        CLOUDY    32  31  95 SE10G17   29.78F FOG     WCI  24
FARIBAULT      CLOUDY    32  28  86 SE14      29.81F FOG     WCI  22
OWATONNA       CLOUDY    32  28  86 SE16G22   29.80F FOG     WCI  21
WASECA         CLOUDY    32  30  93 SE15G23   29.80F FOG     WCI  22
ALBERT LEA     CLOUDY    32  30  93 SE10G21   29.78F FOG     WCI  24
$$
MNZ078>079-086>088-094>096-282100-
   Southeast Minnesota

CITY           SKY/WX    TMP DP  RH WIND       PRES   REMARKS
ROCHESTER      CLOUDY    31  28  89 SE20      29.82F FOG     WCI  19
RED WING       CLOUDY    30  27  86 SE16      29.86F FOG     WCI  19
STANTON        CLOUDY    32  28  86 SE12      29.82F WCI  23
DODGE CENTER   CLOUDY    30  30 100 SE17      29.80F FOG     WCI  18
WINONA         CLOUDY    32  28  86 SE12      29.90F HAZE    WCI  23
AUSTIN         CLOUDY    32  28  86 SE15      29.80F FOG     WCI  22
PRESTON        PTSUNNY   32  27  81 SE15G22   29.83F WCI  22
$$
ABBREVIATIONS USED IN REMARKS
   TC - TEMPERATURES IN CELSIUS
  WCI - WIND CHILL INDEX
   HX - HEAT INDEX
  VSB - VISIBILITY
$$



USA.gov is the U.S. government's official web portal to all federal, state and local government web resources and services.